Wind_Speed
24 24 24 24 24 24 24 24 24 24 23 21 21 21 20 20 21 21 21 21 21 21 22 21 21 21 20 21 20 20 20 20 19 19 19 19 19 19 19 19 19 19 19 19
25 24 25 25 24 25 24 24 23 24 23 21 20 21 21 20 20 21 21 21 21 22 22 22 21 21 21 21 21 20 20 20 20 21 21 21 21 21 20 19 19 20 20 20
25 24 25 25 24 24 24 23 23 23 22 22 21 22 21 21 21 22 23 23 21 21 21 22 22 21 20 21 21 20 20 21 21 21 21 21 20 20 20 20 20 20 20 20
25 24 25 25 23 24 24 23 23 23 24 23 23 22 21 22 22 23 23 22 22 21 21 22 22 22 21 21 22 21 21 21 21 21 21 21 21 21 21 21 21 21 21 21
24 25 25 25 23 23 24 24 23 23 23 23 23 22 22 22 23 22 22 21 21 21 21 21 22 23 23 23 22 22 21 21 21 21 21 21 22 22 22 22 22 22 21 21
24 24 25 24 24 23 24 25 25 24 23 22 22 22 22 22 22 22 22 22 21 20 20 21 22 23 23 23 23 23 23 22 21 22 22 22 22 23 23 23 22 22 22 21
25 25 25 24 24 24 24 24 24 24 23 24 24 24 23 23 23 23 22 22 22 21 21 22 22 22 23 24 24 23 23 22 22 22 22 22 22 23 23 22 22 22 23 22
25 26 25 24 24 24 24 24 24 24 24 24 24 25 25 24 23 23 23 23 23 23 22 22 23 24 24 24 24 24 23 23 22 21 21 22 22 22 22 22 22 22 21 21
25 25 26 25 25 25 24 24 24 24 25 24 24 24 25 24 23 23 23 23 23 23 24 24 23 24 25 25 24 23 24 23 23 22 22 22 21 22 22 22 21 21 21 21
24 24 23 24 25 24 24 24 25 25 25 25 24 24 25 25 25 24 24 25 25 24 24 24 23 24 25 25 24 24 24 23 22 22 22 22 22 22 22 22 22 21 21 21
24 24 24 24 24 24 24 23 24 26 26 25 25 25 25 25 25 26 25 25 24 24 24 23 23 23 22 22 22 22 23 22 22 22 22 23 23 23 22 22 23 22 21 20
23 24 24 25 25 24 24 24 24 25 25 26 25 26 26 26 26 25 25 24 23 23 23 23 23 24 23 22 22 22 22 21 21 22 23 23 24 24 23 23 23 23 23 22
22 23 24 25 25 24 24 24 24 25 25 26 26 24 24 24 24 24 23 23 23 23 23 23 24 24 23 23 23 22 21 22 22 23 23 23 23 23 23 23 23 22 23 23
22 23 24 24 25 24 23 23 23 24 24 25 25 24 24 24 23 23 23 22 22 23 22 22 22 22 22 23 23 22 23 23 23 24 24 24 24 24 24 23 23 23 23 23
21 21 22 22 23 23 22 22 22 22 23 24 24 24 23 22 22 22 22 22 22 22 22 22 21 22 22 23 23 23 24 24 24 24 24 24 24 24 23 23 22 22 23 23
20 20 21 21 22 22 22 22 21 21 22 23 23 24 24 23 22 22 22 22 22 22 23 23 23 23 23 24 24 24 24 25 25 24 23 23 23 23 23 23 23 22 22 22
19 19 20 21 21 22 22 21 22 22 22 22 22 23 23 23 22 22 22 23 23 24 24 24 24 24 25 25 25 26 26 26 26 25 24 23 23 22 22 21 21 21 21 21
19 19 20 20 21 21 20 20 20 20 20 20 21 22 22 23 23 23 23 23 24 25 25 25 25 25 25 25 26 26 26 26 26 26 26 24 24 23 22 22 22 22 22 22
19 18 19 19 19 20 20 20 20 21 21 21 21 21 22 23 23 23 24 24 24 24 25 25 25 25 25 25 25 25 25 25 25 25 25 24 24 24 23 23 23 22 22 21
19 19 19 18 19 19 19 20 21 22 23 23 22 22 23 23 23 23 23 23 24 24 24 25 25 25 25 25 25 24 24 24 24 24 24 24 24 24 23 23 23 22 22 21
19 19 19 19 19 20 20 21 21 22 23 23 23 23 23 23 23 23 23 22 22 23 24 24 25 25 25 26 25 25 24 24 24 24 24 24 23 23 23 22 22 21 21 21
18 18 18 19 20 20 21 21 22 22 22 23 22 22 22 22 22 22 22 23 23 23 23 23 24 25 26 26 26 25 25 24 24 24 24 24 23 23 22 22 21 20 20 21
18 18 19 19 20 20 21 21 21 22 22 22 22 22 21 21 21 21 21 21 22 22 23 23 24 24 25 25 25 25 25 25 25 25 24 23 23 22 21 21 21 21 21 21
17 17 17 18 19 20 20 20 20 21 21 22 22 22 21 21 21 21 21 22 22 22 23 23 24 24 23 23 23 23 23 24 24 24 23 23 22 22 21 21 21 21 21 21
16 16 17 17 18 19 19 19 19 19 20 20 21 21 21 21 21 21 22 22 21 22 22 22 22 22 22 22 22 22 22 22 22 23 22 22 22 22 22 22 21 21 20 20
14 15 15 15 15 16 16 17 18 18 19 19 19 19 19 19 19 20 20 20 20 21 21 21 21 21 21 21 21 22 22 22 22 22 22 22 22 22 22 22 22 22 22 21
14 14 14 14 15 15 15 16 16 17 18 18 18 17 17 18 18 18 18 19 19 19 20 20 20 21 21 22 22 22 23 22 21 21 22 22 23 23 23 22 23 23 22 22
Wind_Direction
256 256 256 254 252 252 253 257 258 260 261 260 264 267 269 268 266 263 263 262 264 264 262 264 263 265 268 270 271 272 273 275 280 283 285 286 288 291 291 293 296 297 296 296
255 254 253 253 252 251 253 255 256 257 258 262 266 268 267 268 269 269 268 266 265 266 264 263 261 261 264 267 269 271 273 275 280 282 283 284 286 286 287 291 294 297 296 296
256 255 253 253 254 252 253 253 252 254 257 261 263 267 266 266 268 270 271 268 268 269 266 263 260 261 263 266 266 268 272 275 278 280 282 283 283 285 287 289 293 297 297 296
255 254 254 255 255 254 255 256 255 257 257 258 262 263 263 266 268 272 274 270 269 268 265 262 259 259 262 265 265 268 271 274 278 278 280 281 282 284 286 288 291 294 295 295
256 255 256 256 256 256 257 257 257 257 256 258 258 262 263 266 270 271 268 267 268 265 262 260 259 259 262 264 266 268 271 274 277 278 278 280 279 282 283 286 289 291 293 293
253 254 255 256 256 257 260 259 258 258 258 258 258 261 263 266 267 266 266 266 266 263 262 261 259 259 262 264 265 268 271 272 274 277 281 282 280 280 282 284 286 288 290 291
250 252 255 257 258 259 261 260 260 260 260 259 258 260 263 267 266 266 263 264 263 263 263 261 259 260 261 264 264 266 268 269 270 273 278 281 282 282 283 285 286 288 289 289
249 251 252 256 257 259 262 262 261 260 260 261 261 261 263 265 266 266 263 262 262 262 263 262 261 261 261 262 265 265 267 268 270 273 276 277 279 282 283 284 285 286 287 286
249 251 253 256 258 258 260 260 259 259 259 258 259 260 261 264 266 264 263 261 260 260 260 262 263 263 261 262 264 264 267 268 270 272 275 275 277 280 283 283 283 283 283 283
249 250 254 256 257 258 259 257 255 256 257 258 258 258 259 261 264 266 263 262 262 261 263 264 265 264 261 261 263 265 265 267 269 271 273 275 278 280 281 282 282 280 279 278
248 250 252 255 257 258 258 256 253 253 256 258 258 258 261 263 264 266 265 263 265 266 266 266 266 265 264 262 263 265 266 268 270 273 275 277 278 279 280 281 280 280 280 279
249 249 252 253 255 256 257 257 256 254 254 257 258 257 259 261 262 263 261 262 265 267 266 265 264 263 263 262 263 267 269 269 271 273 276 278 280 280 281 281 279 279 277 276
249 249 252 255 255 257 256 255 254 255 256 257 259 260 262 263 264 264 264 263 264 265 265 264 264 265 264 264 265 267 269 270 273 276 278 280 281 282 283 283 282 281 279 276
251 252 253 254 255 256 259 260 258 258 258 258 259 261 263 263 263 264 265 265 265 265 264 265 264 264 265 267 268 269 271 272 273 275 278 280 281 282 283 284 282 279 278 279
255 254 255 255 254 256 260 262 260 260 261 260 259 261 263 262 262 263 264 264 265 265 265 264 264 265 265 268 269 270 271 272 274 277 280 280 280 280 280 282 281 279 278 278
256 256 257 257 257 257 260 261 261 262 262 263 264 264 264 263 263 264 266 265 266 265 264 263 264 265 266 269 270 271 271 273 274 277 280 279 280 282 282 281 281 281 279 276
252 253 254 257 260 260 260 261 263 263 262 262 263 263 263 263 264 265 267 267 267 268 268 268 267 265 266 268 270 272 273 274 275 278 280 280 280 282 283 283 282 281 279 276
254 256 257 260 261 261 259 261 263 263 262 262 263 264 264 265 265 265 268 268 268 269 268 269 268 266 267 269 271 272 272 274 276 277 279 279 279 279 281 282 281 279 278 277
259 260 259 260 261 261 261 263 264 264 264 263 262 264 266 268 269 268 269 269 270 269 267 268 268 267 268 270 272 272 273 275 276 277 276 277 279 279 280 280 280 278 277 277
262 264 265 265 263 262 263 264 264 263 264 264 265 266 268 270 270 270 270 271 271 270 270 269 269 267 266 268 270 272 274 275 276 275 275 276 277 278 277 278 278 276 274 276
264 265 265 265 266 265 264 264 265 264 264 264 264 265 268 269 271 271 270 271 270 269 269 268 269 267 267 268 269 271 273 273 273 274 275 274 274 275 276 277 276 273 272 272
265 264 265 266 267 266 267 268 269 268 267 267 267 267 268 269 270 271 271 271 269 268 268 268 268 268 269 268 268 269 270 270 270 271 272 271 271 272 273 273 274 274 274 274
272 269 268 269 269 269 269 270 271 271 270 270 269 270 270 269 270 270 270 272 272 270 269 269 270 271 270 269 269 268 268 268 269 270 270 270 269 269 268 268 270 272 274 275
275 270 268 270 268 269 270 270 271 272 272 272 273 273 271 270 270 270 271 273 273 272 271 271 271 271 271 269 268 268 269 268 269 269 269 269 269 268 268 268 270 272 275 277
274 272 272 274 273 272 271 270 270 272 274 275 273 271 269 268 269 271 272 273 273 271 270 271 271 271 271 271 271 270 269 269 268 267 268 268 267 267 268 269 270 272 274 276
275 276 276 277 278 277 275 273 272 272 276 276 273 271 269 269 269 271 272 273 273 273 271 270 270 271 272 272 272 269 268 267 266 267 267 267 267 267 268 269 271 272 273 272
280 281 281 280 278 279 279 279 278 277 277 274 271 269 268 268 270 271 272 273 273 273 273 272 271 271 272 272 271 270 269 266 266 268 269 268 267 265 265 268 270 271 271 273
Height
5766 5768 5769 5770 5771 5772 5773 5773 5774 5776 5777 5778 5779 5779 5780 5780 5781 5782 5783 5783 5784 5784 5784 5784 5785 5785 5786 5786 5786 5786 5787 5786 5786 5785 5784 5783 5782 5780 5779 5778 5776 5774 5771 5769
5760 5761 5762 5763 5764 5766 5767 5768 5769 5770 5771 5773 5773 5774 5774 5775 5776 5776 5777 5777 5778 5778 5778 5778 5778 5779 5780 5780 5780 5781 5781 5781 5780 5779 5778 5777 5776 5775 5774 5772 5771 5769 5766 5764
5753 5754 5755 5757 5759 5760 5761 5762 5764 5765 5767 5767 5768 5768 5769 5769 5770 5770 5770 5771 5771 5771 5771 5772 5772 5773 5774 5774 5774 5775 5775 5774 5774 5773 5772 5771 5770 5769 5768 5767 5765 5763 5761 5758
5746 5748 5749 5753 5753 5754 5755 5756 5757 5759 5760 5761 5762 5762 5763 5763 5763 5764 5763 5763 5764 5764 5764 5765 5766 5767 5767 5768 5768 5768 5768 5768 5768 5767 5766 5766 5765 5764 5763 5761 5760 5758 5755 5753
5739 5741 5743 5745 5747 5747 5749 5750 5751 5753 5754 5755 5756 5756 5757 5757 5757 5757 5756 5757 5757 5757 5758 5759 5759 5760 5761 5761 5762 5762 5762 5762 5762 5761 5760 5760 5759 5758 5757 5755 5754 5752 5750 5747
5733 5734 5736 5740 5740 5741 5744 5744 5745 5746 5748 5749 5750 5751 5752 5751 5751 5751 5751 5751 5751 5752 5752 5752 5753 5754 5754 5755 5755 5756 5755 5755 5755 5755 5754 5754 5753 5752 5750 5749 5747 5745 5744 5742
5726 5728 5729 5732 5733 5735 5737 5739 5739 5740 5741 5742 5744 5745 5745 5745 5745 5745 5745 5745 5745 5745 5746 5746 5747 5747 5748 5748 5748 5749 5748 5748 5748 5748 5748 5747 5746 5745 5744 5743 5741 5739 5738 5736
5720 5721 5725 5725 5726 5728 5730 5730 5731 5733 5734 5735 5736 5737 5738 5738 5738 5739 5739 5739 5739 5739 5739 5739 5740 5741 5741 5741 5742 5741 5742 5741 5741 5741 5741 5740 5739 5738 5737 5736 5735 5733 5731 5730
5714 5717 5717 5718 5719 5721 5722 5723 5725 5726 5727 5728 5729 5730 5731 5731 5732 5732 5733 5733 5733 5733 5733 5733 5733 5734 5734 5734 5734 5735 5735 5735 5735 5734 5734 5733 5732 5732 5731 5729 5728 5727 5725 5724
5707 5709 5710 5711 5713 5714 5715 5716 5717 5718 5720 5721 5722 5723 5724 5724 5725 5725 5726 5726 5726 5726 5726 5726 5726 5727 5727 5727 5727 5728 5728 5728 5728 5728 5727 5726 5725 5724 5724 5722 5721 5719 5719 5718
5700 5702 5704 5705 5706 5707 5708 5709 5710 5711 5713 5714 5715 5716 5717 5718 5718 5718 5719 5719 5719 5718 5719 5719 5719 5719 5719 5719 5720 5721 5721 5721 5721 5721 5720 5719 5719 5717 5716 5715 5713 5712 5711 5710
5694 5696 5697 5698 5699 5700 5701 5702 5703 5704 5706 5707 5708 5709 5710 5710 5711 5711 5711 5711 5711 5711 5712 5712 5712 5712 5712 5712 5713 5714 5714 5715 5714 5714 5713 5713 5712 5710 5709 5707 5706 5705 5704 5703
5687 5688 5690 5691 5692 5693 5694 5694 5695 5697 5698 5700 5701 5702 5702 5703 5703 5704 5704 5704 5705 5705 5705 5706 5706 5706 5706 5706 5707 5707 5708 5708 5707 5707 5706 5705 5704 5703 5701 5700 5698 5697 5696 5695
5680 5682 5683 5684 5685 5686 5686 5687 5688 5689 5691 5692 5693 5695 5695 5696 5696 5697 5697 5697 5698 5698 5699 5699 5699 5700 5700 5700 5700 5700 5701 5700 5700 5700 5699 5697 5696 5695 5693 5692 5691 5690 5689 5688
5673 5675 5676 5677 5678 5679 5680 5681 5682 5683 5684 5684 5685 5687 5688 5689 5689 5690 5690 5690 5691 5691 5692 5692 5693 5693 5693 5693 5694 5693 5693 5693 5692 5691 5690 5689 5688 5687 5686 5684 5683 5682 5681 5680
5667 5668 5669 5671 5671 5672 5673 5674 5675 5676 5677 5677 5678 5680 5681 5682 5682 5683 5683 5683 5684 5684 5685 5685 5686 5686 5686 5686 5686 5686 5686 5685 5685 5684 5683 5681 5680 5679 5677 5676 5675 5674 5673 5672
5661 5662 5663 5664 5665 5665 5666 5667 5668 5669 5670 5670 5671 5672 5673 5674 5675 5676 5676 5676 5676 5677 5677 5678 5678 5678 5679 5679 5679 5678 5678 5677 5676 5675 5675 5674 5673 5671 5670 5669 5667 5666 5666 5665
5654 5656 5657 5658 5658 5659 5660 5661 5662 5663 5663 5664 5665 5666 5666 5667 5668 5669 5669 5669 5669 5669 5669 5670 5670 5670 5671 5671 5670 5670 5670 5669 5668 5667 5667 5666 5665 5664 5663 5662 5661 5660 5659 5658
5649 5650 5651 5651 5653 5653 5654 5655 5656 5656 5657 5657 5658 5659 5659 5660 5660 5661 5661 5661 5661 5662 5662 5662 5662 5662 5662 5662 5662 5661 5661 5661 5660 5659 5659 5658 5657 5656 5655 5654 5653 5652 5651 5650
5643 5644 5645 5645 5646 5647 5648 5649 5649 5650 5650 5651 5651 5652 5652 5652 5653 5653 5653 5653 5653 5654 5654 5654 5654 5654 5654 5654 5654 5653 5653 5652 5652 5651 5650 5650 5649 5648 5647 5646 5646 5645 5644 5643
5638 5638 5639 5639 5640 5640 5641 5641 5642 5642 5643 5643 5644 5644 5645 5645 5645 5645 5645 5646 5646 5646 5646 5646 5646 5646 5646 5646 5646 5645 5645 5644 5643 5643 5642 5642 5641 5640 5639 5639 5638 5637 5636 5635
5631 5632 5633 5633 5633 5633 5633 5634 5634 5635 5635 5636 5636 5637 5637 5637 5638 5638 5638 5638 5638 5638 5638 5638 5638 5638 5637 5637 5637 5637 5636 5636 5635 5635 5635 5634 5633 5633 5632 5631 5630 5629 5628 5628
5625 5626 5626 5627 5627 5627 5627 5627 5627 5627 5627 5628 5628 5628 5629 5629 5630 5630 5631 5631 5630 5630 5630 5630 5630 5629 5629 5629 5628 5628 5628 5628 5627 5627 5627 5626 5626 5625 5624 5624 5623 5623 5622 5621
5619 5619 5620 5620 5620 5620 5620 5620 5620 5620 5620 5620 5620 5620 5621 5621 5622 5622 5623 5623 5622 5622 5622 5622 5621 5621 5621 5621 5620 5620 5620 5619 5619 5619 5619 5618 5618 5618 5617 5616 5616 5616 5615 5614
5614 5614 5614 5614 5613 5613 5613 5613 5613 5613 5613 5612 5612 5612 5613 5614 5614 5615 5615 5615 5614 5614 5614 5614 5614 5613 5613 5613 5613 5612 5612 5612 5612 5612 5611 5611 5611 5610 5610 5609 5609 5609 5608 5607
5608 5608 5608 5608 5607 5607 5607 5607 5606 5606 5606 5606 5605 5605 5606 5606 5607 5607 5607 5607 5607 5607 5607 5606 5606 5606 5605 5605 5605 5605 5605 5604 5604 5604 5604 5603 5603 5603 5602 5602 5602 5601 5601 5600
5603 5603 5603 5602 5602 5601 5601 5601 5600 5600 5599 5599 5599 5599 5599 5599 5600 5600 5600 5600 5600 5600 5599 5599 5599 5598 5598 5598 5598 5597 5597 5597 5597 5597 5596 5596 5595 5595 5595 5595 5594 5594 5593 5593